Time,TemperatureF,DewpointF,PressureIn,WindDirection,WindDirectionDegrees,WindSpeedMPH,WindSpeedGustMPH,Humidity,HourlyPrecipIn,Conditions,Clouds,dailyrainin,SoftwareType,DateUTC
2013-08-20 00:00:00,76.5,73.3,30.08,East,88,4.0,4.0,90,0.00,,,0.06,Wunderground v.1.15,2013-08-20 04:00:00,
2013-08-20 00:05:00,76.5,73.3,30.08,East,88,3.0,8.0,90,0.00,,,0.06,Wunderground v.1.15,2013-08-20 04:05:00,
2013-08-20 00:10:00,76.4,73.2,30.08,SSE,160,3.0,3.0,90,0.00,,,0.06,Wunderground v.1.15,2013-08-20 04:10:00,
2013-08-20 00:15:00,76.5,73.3,30.08,East,97,3.0,8.0,90,0.00,,,0.06,Wunderground v.1.15,2013-08-20 04:15:00,
2013-08-20 00:20:00,76.6,73.4,30.08,East,94,4.0,8.0,90,0.00,,,0.06,Wunderground v.1.15,2013-08-20 04:20:00,
2013-08-20 00:25:00,76.7,73.5,30.08,ESE,108,4.0,8.0,90,0.00,,,0.06,Wunderground v.1.15,2013-08-20 04:25:00,
2013-08-20 00:30:00,76.8,73.6,30.08,ENE,75,4.0,4.0,90,0.00,,,0.06,Wunderground v.1.15,2013-08-20 04:30:00,
2013-08-20 00:35:00,76.8,73.6,30.08,ESE,120,4.0,8.0,90,0.00,,,0.06,Wunderground v.1.15,2013-08-20 04:35:00,
2013-08-20 00:40:00,76.8,73.6,30.08,ENE,72,4.0,8.0,90,0.00,,,0.06,Wunderground v.1.15,2013-08-20 04:40:00,
2013-08-20 00:45:00,76.8,73.6,30.08,ESE,109,4.0,8.0,90,0.00,,,0.06,Wunderground v.1.15,2013-08-20 04:45:00,
2013-08-20 00:50:00,76.8,73.6,30.08,ESE,104,4.0,4.0,90,0.00,,,0.06,Wunderground v.1.15,2013-08-20 04:50:00,
2013-08-20 00:55:00,76.8,73.6,30.08,East,100,3.0,8.0,90,0.00,,,0.06,Wunderground v.1.15,2013-08-20 04:55:00,
2013-08-20 01:00:00,76.8,73.6,30.08,East,91,3.0,7.0,90,0.00,,,0.06,Wunderground v.1.15,2013-08-20 05:00:00,
2013-08-20 01:05:00,76.7,73.5,30.08,ENE,59,3.0,7.0,90,0.00,,,0.00,Wunderground v.1.15,2013-08-20 05:05:00,
2013-08-20 01:10:00,76.7,73.5,30.08,East,98,3.0,7.0,90,0.00,,,0.00,Wunderground v.1.15,2013-08-20 05:10:00,
2013-08-20 01:15:00,76.7,73.5,30.08,ENE,78,3.0,7.0,90,0.00,,,0.00,Wunderground v.1.15,2013-08-20 05:15:00,
2013-08-20 01:20:00,76.7,73.5,30.08,ENE,72,2.0,2.0,90,0.00,,,0.00,Wunderground v.1.15,2013-08-20 05:20:00,
2013-08-20 01:25:00,76.6,73.4,30.07,ENE,72,2.0,7.0,90,0.00,,,0.00,Wunderground v.1.15,2013-08-20 05:25:00,
2013-08-20 01:30:00,76.5,73.3,30.07,ENE,75,2.0,7.0,90,0.00,,,0.00,Wunderground v.1.15,2013-08-20 05:30:00,
2013-08-20 01:35:00,76.4,73.2,30.07,NE,40,2.0,7.0,90,0.00,,,0.00,Wunderground v.1.15,2013-08-20 05:35:00,
2013-08-20 01:40:00,76.0,72.9,30.07,NE,53,2.0,2.0,90,0.00,,,0.00,Wunderground v.1.15,2013-08-20 05:40:00,
2013-08-20 01:45:00,75.4,72.3,30.07,ENE,58,3.0,3.0,90,0.00,,,0.00,Wunderground v.1.15,2013-08-20 05:45:00,
2013-08-20 01:50:00,75.0,72.2,30.07,NNE,27,2.0,7.0,91,0.00,,,0.00,Wunderground v.1.15,2013-08-20 05:50:00,
2013-08-20 01:55:00,74.9,72.1,30.07,NE,39,2.0,7.0,91,0.00,,,0.00,Wunderground v.1.15,2013-08-20 05:55:00,
2013-08-20 02:00:00,74.8,72.0,30.07,NE,38,2.0,2.0,91,0.00,,,0.00,Wunderground v.1.15,2013-08-20 06:00:00,
2013-08-20 02:05:00,74.7,71.9,30.07,NE,54,2.0,5.0,91,0.00,,,0.00,Wunderground v.1.15,2013-08-20 06:05:00,
2013-08-20 02:10:00,74.8,72.3,30.07,NE,53,2.0,2.0,92,0.00,,,0.00,Wunderground v.1.15,2013-08-20 06:10:00,
2013-08-20 02:15:00,74.7,72.2,30.07,NE,51,2.0,3.0,92,0.00,,,0.00,Wunderground v.1.15,2013-08-20 06:15:00,
2013-08-20 02:20:00,74.7,72.2,30.07,NE,45,2.0,5.0,92,0.00,,,0.00,Wunderground v.1.15,2013-08-20 06:20:00,
2013-08-20 02:25:00,74.6,72.1,30.07,North,353,2.0,5.0,92,0.00,,,0.00,Wunderground v.1.15,2013-08-20 06:25:00,
2013-08-20 02:30:00,74.4,71.9,30.07,NNE,25,2.0,5.0,92,0.00,,,0.00,Wunderground v.1.15,2013-08-20 06:30:00,
2013-08-20 02:35:00,74.2,71.7,30.07,North,11,2.0,5.0,92,0.00,,,0.00,Wunderground v.1.15,2013-08-20 06:35:00,
2013-08-20 02:40:00,74.2,71.7,30.07,NE,36,2.0,5.0,92,0.00,,,0.00,Wunderground v.1.15,2013-08-20 06:40:00,
2013-08-20 02:45:00,74.1,71.6,30.06,ENE,71,1.0,5.0,92,0.00,,,0.00,Wunderground v.1.15,2013-08-20 06:45:00,
2013-08-20 02:55:00,74.2,71.7,30.06,ENE,57,1.0,5.0,92,0.00,,,0.00,Wunderground v.1.15,2013-08-20 06:55:00,
2013-08-20 03:00:00,74.2,71.7,30.06,NNE,20,2.0,5.0,92,0.00,,,0.00,Wunderground v.1.15,2013-08-20 07:00:00,
2013-08-20 03:05:00,74.2,71.7,30.07,NE,34,2.0,5.0,92,0.00,,,0.00,Wunderground v.1.15,2013-08-20 07:05:00,
2013-08-20 03:10:00,74.1,71.6,30.06,NNE,20,2.0,5.0,92,0.00,,,0.00,Wunderground v.1.15,2013-08-20 07:10:00,
2013-08-20 03:15:00,74.0,71.5,30.06,ENE,64,2.0,5.0,92,0.00,,,0.00,Wunderground v.1.15,2013-08-20 07:15:00,
2013-08-20 03:20:00,74.0,71.5,30.06,NE,39,2.0,5.0,92,0.00,,,0.00,Wunderground v.1.15,2013-08-20 07:20:00,
2013-08-20 03:25:00,73.9,71.4,30.07,NE,50,2.0,5.0,92,0.00,,,0.00,Wunderground v.1.15,2013-08-20 07:25:00,
2013-08-20 03:30:00,73.9,71.4,30.07,North,8,2.0,5.0,92,0.00,,,0.00,Wunderground v.1.15,2013-08-20 07:30:00,
2013-08-20 03:35:00,73.8,71.3,30.06,North,360,2.0,5.0,92,0.00,,,0.00,Wunderground v.1.15,2013-08-20 07:35:00,
2013-08-20 03:40:00,73.7,71.2,30.06,NE,56,2.0,5.0,92,0.00,,,0.00,Wunderground v.1.15,2013-08-20 07:40:00,
2013-08-20 03:45:00,73.7,71.2,30.06,East,79,2.0,5.0,92,0.00,,,0.00,Wunderground v.1.15,2013-08-20 07:45:00,
2013-08-20 03:50:00,73.7,71.5,30.06,ENE,70,2.0,2.0,93,0.00,,,0.00,Wunderground v.1.15,2013-08-20 07:50:00,
2013-08-20 03:55:00,73.7,71.5,30.06,ENE,60,2.0,5.0,93,0.00,,,0.00,Wunderground v.1.15,2013-08-20 07:55:00,
2013-08-20 04:00:00,73.8,71.6,30.06,ENE,77,1.0,4.0,93,0.00,,,0.00,Wunderground v.1.15,2013-08-20 08:00:00,
2013-08-20 04:05:00,73.8,71.6,30.06,NE,54,1.0,4.0,93,0.00,,,0.00,Wunderground v.1.15,2013-08-20 08:05:00,
2013-08-20 04:15:00,73.8,71.6,30.06,ENE,70,2.0,4.0,93,0.00,,,0.00,Wunderground v.1.15,2013-08-20 08:15:00,
2013-08-20 04:20:00,73.7,71.5,30.06,NE,41,2.0,2.0,93,0.00,,,0.00,Wunderground v.1.15,2013-08-20 08:20:00,
2013-08-20 04:25:00,73.7,71.5,30.06,ENE,77,1.0,4.0,93,0.00,,,0.00,Wunderground v.1.15,2013-08-20 08:25:00,
2013-08-20 04:30:00,73.7,71.5,30.06,ENE,57,1.0,1.0,93,0.00,,,0.00,Wunderground v.1.15,2013-08-20 08:30:00,
2013-08-20 04:35:00,73.6,71.4,30.06,ENE,63,1.0,4.0,93,0.00,,,0.00,Wunderground v.1.15,2013-08-20 08:35:00,
2013-08-20 04:40:00,73.7,71.5,30.06,NE,54,2.0,2.0,93,0.00,,,0.00,Wunderground v.1.15,2013-08-20 08:40:00,
2013-08-20 04:45:00,73.7,71.5,30.06,ENE,63,2.0,3.0,93,0.00,,,0.00,Wunderground v.1.15,2013-08-20 08:45:00,
2013-08-20 04:50:00,73.7,71.5,30.06,East,79,2.0,2.0,93,0.00,,,0.00,Wunderground v.1.15,2013-08-20 08:50:00,
2013-08-20 04:55:00,73.8,71.6,30.06,NE,53,2.0,5.0,93,0.00,,,0.00,Wunderground v.1.15,2013-08-20 08:55:00,
2013-08-20 05:00:00,73.8,71.6,30.06,East,80,3.0,4.0,93,0.00,,,0.00,Wunderground v.1.15,2013-08-20 09:00:00,
2013-08-20 05:10:00,73.9,71.7,30.07,NE,51,3.0,3.0,93,0.00,,,0.00,Wunderground v.1.15,2013-08-20 09:10:00,
2013-08-20 05:15:00,74.0,71.8,30.07,ENE,57,3.0,4.0,93,0.00,,,0.00,Wunderground v.1.15,2013-08-20 09:15:00,
2013-08-20 05:20:00,74.0,71.8,30.07,ENE,77,3.0,3.0,93,0.00,,,0.00,Wunderground v.1.15,2013-08-20 09:20:00,
2013-08-20 05:25:00,74.0,72.2,30.07,North,358,3.0,4.0,94,0.00,,,0.00,Wunderground v.1.15,2013-08-20 09:25:00,
2013-08-20 05:30:00,74.0,71.8,30.07,ENE,73,3.0,4.0,93,0.00,,,0.00,Wunderground v.1.15,2013-08-20 09:30:00,
2013-08-20 05:35:00,74.0,72.2,30.07,East,89,3.0,4.0,94,0.00,,,0.00,Wunderground v.1.15,2013-08-20 09:35:00,
2013-08-20 05:40:00,74.0,72.2,30.07,ENE,73,3.0,3.0,94,0.00,,,0.00,Wunderground v.1.15,2013-08-20 09:40:00,
2013-08-20 05:45:00,73.9,72.1,30.07,East,84,2.0,4.0,94,0.00,,,0.00,Wunderground v.1.15,2013-08-20 09:45:00,
2013-08-20 05:50:00,74.0,72.2,30.07,ENE,73,2.0,4.0,94,0.00,,,0.00,Wunderground v.1.15,2013-08-20 09:50:00,
2013-08-20 05:55:00,74.0,72.2,30.07,ENE,63,1.0,4.0,94,0.00,,,0.00,Wunderground v.1.15,2013-08-20 09:55:00,
2013-08-20 06:00:00,73.9,72.1,30.07,East,80,2.0,6.0,94,0.00,,,0.00,Wunderground v.1.15,2013-08-20 10:00:00,
2013-08-20 06:05:00,73.8,72.0,30.07,NE,51,2.0,6.0,94,0.00,,,0.00,Wunderground v.1.15,2013-08-20 10:05:00,
2013-08-20 06:10:00,73.7,71.9,30.07,East,80,2.0,2.0,94,0.00,,,0.00,Wunderground v.1.15,2013-08-20 10:10:00,
2013-08-20 06:15:00,73.7,71.9,30.08,ENE,66,1.0,6.0,94,0.00,,,0.00,Wunderground v.1.15,2013-08-20 10:15:00,
2013-08-20 06:20:00,73.6,71.8,30.08,NE,53,2.0,6.0,94,0.00,,,0.00,Wunderground v.1.15,2013-08-20 10:20:00,
2013-08-20 06:25:00,73.6,71.8,30.08,NE,51,2.0,6.0,94,0.00,,,0.00,Wunderground v.1.15,2013-08-20 10:25:00,
2013-08-20 06:30:00,73.6,71.8,30.08,NE,53,2.0,2.0,94,0.00,,,0.00,Wunderground v.1.15,2013-08-20 10:30:00,
2013-08-20 06:35:00,73.5,71.7,30.08,ENE,61,2.0,6.0,94,0.00,,,0.00,Wunderground v.1.15,2013-08-20 10:35:00,
2013-08-20 06:40:00,73.4,71.6,30.08,East,80,2.0,2.0,94,0.00,,,0.00,Wunderground v.1.15,2013-08-20 10:40:00,
2013-08-20 06:45:00,73.4,71.6,30.09,ENE,61,2.0,6.0,94,0.00,,,0.00,Wunderground v.1.15,2013-08-20 10:45:00,
2013-08-20 06:50:00,73.3,71.5,30.09,NE,55,2.0,6.0,94,0.00,,,0.00,Wunderground v.1.15,2013-08-20 10:50:00,
2013-08-20 06:55:00,73.4,71.6,30.09,ENE,69,3.0,6.0,94,0.00,,,0.00,Wunderground v.1.15,2013-08-20 10:55:00,
2013-08-20 07:00:00,73.4,71.6,30.09,East,80,3.0,5.0,94,0.00,,,0.00,Wunderground v.1.15,2013-08-20 11:00:00,
2013-08-20 07:10:00,73.5,71.7,30.09,ENE,77,3.0,5.0,94,0.00,,,0.00,Wunderground v.1.15,2013-08-20 11:10:00,
2013-08-20 07:15:00,73.6,71.4,30.09,ENE,59,3.0,5.0,93,0.00,,,0.00,Wunderground v.1.15,2013-08-20 11:15:00,
2013-08-20 07:20:00,73.8,71.6,30.09,ENE,65,3.0,4.0,93,0.00,,,0.00,Wunderground v.1.15,2013-08-20 11:20:00,
2013-08-20 07:25:00,74.0,71.8,30.10,East,101,3.0,4.0,93,0.00,,,0.00,Wunderground v.1.15,2013-08-20 11:25:00,
2013-08-20 07:30:00,74.1,71.9,30.09,ENE,60,3.0,3.0,93,0.00,,,0.00,Wunderground v.1.15,2013-08-20 11:30:00,
2013-08-20 07:35:00,74.4,72.2,30.10,ENE,72,3.0,4.0,93,0.00,,,0.00,Wunderground v.1.15,2013-08-20 11:35:00,
2013-08-20 07:40:00,74.5,72.3,30.10,ENE,72,3.0,3.0,93,0.00,,,0.00,Wunderground v.1.15,2013-08-20 11:40:00,
2013-08-20 07:50:00,75.1,72.6,30.10,NE,45,3.0,3.0,92,0.00,,,0.00,Wunderground v.1.15,2013-08-20 11:50:00,
2013-08-20 07:55:00,75.3,72.8,30.10,ESE,116,3.0,4.0,92,0.00,,,0.00,Wunderground v.1.15,2013-08-20 11:55:00,
2013-08-20 08:00:00,75.5,72.7,30.10,East,89,3.0,6.0,91,0.00,,,0.00,Wunderground v.1.15,2013-08-20 12:00:00,
2013-08-20 08:10:00,76.2,73.1,30.10,East,79,3.0,3.0,90,0.00,,,0.00,Wunderground v.1.15,2013-08-20 12:10:00,
2013-08-20 08:15:00,76.3,73.1,30.10,East,97,3.0,6.0,90,0.00,,,0.00,Wunderground v.1.15,2013-08-20 12:15:00,
2013-08-20 08:20:00,76.5,73.3,30.10,East,99,4.0,6.0,90,0.00,,,0.00,Wunderground v.1.15,2013-08-20 12:20:00,
2013-08-20 08:25:00,76.5,73.3,30.11,East,92,5.0,6.0,90,0.00,,,0.00,Wunderground v.1.15,2013-08-20 12:25:00,
2013-08-20 08:30:00,76.6,73.4,30.11,ESE,110,5.0,5.0,90,0.00,,,0.00,Wunderground v.1.15,2013-08-20 12:30:00,
2013-08-20 08:35:00,76.9,73.7,30.11,East,86,5.0,6.0,90,0.00,,,0.00,Wunderground v.1.15,2013-08-20 12:35:00,
2013-08-20 08:40:00,77.0,73.5,30.11,East,99,5.0,5.0,89,0.00,,,0.00,Wunderground v.1.15,2013-08-20 12:40:00,
2013-08-20 08:45:00,77.3,73.8,30.11,East,84,5.0,8.0,89,0.00,,,0.00,Wunderground v.1.15,2013-08-20 12:45:00,
2013-08-20 08:50:00,77.5,74.0,30.11,ENE,61,4.0,6.0,89,0.00,,,0.00,Wunderground v.1.15,2013-08-20 12:50:00,
2013-08-20 08:55:00,77.5,74.0,30.12,ESE,121,5.0,6.0,89,0.00,,,0.00,Wunderground v.1.15,2013-08-20 12:55:00,
2013-08-20 09:00:00,77.8,74.3,30.11,East,79,5.0,5.0,89,0.00,,,0.00,Wunderground v.1.15,2013-08-20 13:00:00,
2013-08-20 09:05:00,77.7,74.2,30.11,ENE,70,5.0,8.0,89,0.00,,,0.00,Wunderground v.1.15,2013-08-20 13:05:00,
2013-08-20 09:10:00,77.9,74.4,30.11,East,81,5.0,8.0,89,0.00,,,0.00,Wunderground v.1.15,2013-08-20 13:10:00,
2013-08-20 09:15:00,77.9,74.4,30.12,ENE,65,5.0,8.0,89,0.00,,,0.00,Wunderground v.1.15,2013-08-20 13:15:00,
2013-08-20 09:20:00,78.3,74.8,30.12,NNE,27,5.0,5.0,89,0.00,,,0.00,Wunderground v.1.15,2013-08-20 13:20:00,
2013-08-20 09:25:00,78.4,74.9,30.12,ESE,102,5.0,8.0,89,0.00,,,0.00,Wunderground v.1.15,2013-08-20 13:25:00,
2013-08-20 09:30:00,78.3,74.8,30.12,East,93,5.0,5.0,89,0.00,,,0.00,Wunderground v.1.15,2013-08-20 13:30:00,
2013-08-20 09:35:00,78.5,75.0,30.12,East,85,5.0,6.0,89,0.00,,,0.00,Wunderground v.1.15,2013-08-20 13:35:00,
2013-08-20 09:40:00,78.5,74.6,30.12,ENE,75,5.0,8.0,88,0.00,,,0.00,Wunderground v.1.15,2013-08-20 13:40:00,
2013-08-20 09:45:00,78.3,74.5,30.13,East,86,5.0,8.0,88,0.00,,,0.00,Wunderground v.1.15,2013-08-20 13:45:00,
2013-08-20 09:50:00,78.0,74.5,30.13,East,88,6.0,6.0,89,0.00,,,0.00,Wunderground v.1.15,2013-08-20 13:50:00,
2013-08-20 09:55:00,78.5,75.0,30.13,SE,139,5.0,8.0,89,0.00,,,0.00,Wunderground v.1.15,2013-08-20 13:55:00,
2013-08-20 10:00:00,78.9,75.0,30.13,SE,131,5.0,5.0,88,0.00,,,0.00,Wunderground v.1.15,2013-08-20 14:00:00,
2013-08-20 10:05:00,79.0,75.1,30.13,East,94,5.0,9.0,88,0.00,,,0.00,Wunderground v.1.15,2013-08-20 14:05:00,
2013-08-20 10:10:00,79.2,75.3,30.13,NE,53,5.0,9.0,88,0.00,,,0.00,Wunderground v.1.15,2013-08-20 14:10:00,
2013-08-20 10:15:00,79.2,75.3,30.14,SE,132,4.0,9.0,88,0.00,,,0.00,Wunderground v.1.15,2013-08-20 14:15:00,
2013-08-20 10:20:00,79.2,75.3,30.14,SSE,150,4.0,9.0,88,0.00,,,0.00,Wunderground v.1.15,2013-08-20 14:20:00,
2013-08-20 10:25:00,79.3,75.4,30.14,East,99,5.0,9.0,88,0.00,,,0.00,Wunderground v.1.15,2013-08-20 14:25:00,
2013-08-20 10:30:00,79.5,75.6,30.14,SE,133,5.0,5.0,88,0.00,,,0.00,Wunderground v.1.15,2013-08-20 14:30:00,
2013-08-20 10:35:00,79.7,75.5,30.14,ESE,117,6.0,6.0,87,0.00,,,0.00,Wunderground v.1.15,2013-08-20 14:35:00,
2013-08-20 10:40:00,79.6,75.7,30.14,SE,134,6.0,6.0,88,0.00,,,0.00,Wunderground v.1.15,2013-08-20 14:40:00,
2013-08-20 10:45:00,80.0,75.8,30.14,SE,138,6.0,8.0,87,0.00,,,0.00,Wunderground v.1.15,2013-08-20 14:45:00,
2013-08-20 10:50:00,80.1,75.9,30.14,SE,141,6.0,9.0,87,0.00,,,0.00,Wunderground v.1.15,2013-08-20 14:50:00,
2013-08-20 10:55:00,80.2,76.0,30.14,ESE,108,6.0,9.0,87,0.00,,,0.00,Wunderground v.1.15,2013-08-20 14:55:00,
2013-08-20 11:00:00,79.8,75.2,30.14,SE,146,7.0,12.0,86,0.00,,,0.00,Wunderground v.1.15,2013-08-20 15:00:00,
2013-08-20 11:05:00,79.6,75.4,30.14,SE,142,8.0,12.0,87,0.00,,,0.00,Wunderground v.1.15,2013-08-20 15:05:00,
2013-08-20 11:10:00,79.7,75.5,30.14,ESE,121,8.0,8.0,87,0.00,,,0.00,Wunderground v.1.15,2013-08-20 15:10:00,
2013-08-20 11:15:00,79.8,75.6,30.14,ESE,122,8.0,12.0,87,0.00,,,0.00,Wunderground v.1.15,2013-08-20 15:15:00,
2013-08-20 11:20:00,79.9,75.7,30.14,SE,128,7.0,12.0,87,0.00,,,0.00,Wunderground v.1.15,2013-08-20 15:20:00,
2013-08-20 11:25:00,79.5,75.3,30.14,ESE,122,8.0,12.0,87,0.00,,,0.00,Wunderground v.1.15,2013-08-20 15:25:00,
2013-08-20 11:30:00,79.4,75.5,30.14,SE,139,8.0,8.0,88,0.00,,,0.00,Wunderground v.1.15,2013-08-20 15:30:00,
2013-08-20 11:35:00,79.4,75.5,30.14,ESE,115,7.0,12.0,88,0.00,,,0.00,Wunderground v.1.15,2013-08-20 15:35:00,
2013-08-20 11:40:00,79.4,75.5,30.14,SE,124,6.0,12.0,88,0.00,,,0.00,Wunderground v.1.15,2013-08-20 15:40:00,
2013-08-20 11:45:00,79.5,75.6,30.14,SE,134,7.0,12.0,88,0.00,,,0.00,Wunderground v.1.15,2013-08-20 15:45:00,
2013-08-20 11:50:00,79.8,75.6,30.14,ESE,114,7.0,12.0,87,0.00,,,0.00,Wunderground v.1.15,2013-08-20 15:50:00,
2013-08-20 11:55:00,80.3,76.1,30.14,SE,124,7.0,12.0,87,0.00,,,0.00,Wunderground v.1.15,2013-08-20 15:55:00,
2013-08-20 12:00:00,80.8,76.2,30.14,SE,135,6.0,12.0,86,0.00,,,0.00,Wunderground v.1.15,2013-08-20 16:00:00,
2013-08-20 12:10:00,81.0,76.4,30.14,SE,141,7.0,12.0,86,0.00,,,0.00,Wunderground v.1.15,2013-08-20 16:10:00,
2013-08-20 12:15:00,80.7,76.1,30.14,SE,128,7.0,12.0,86,0.00,,,0.00,Wunderground v.1.15,2013-08-20 16:15:00,
2013-08-20 12:20:00,80.8,76.6,30.14,ESE,122,7.0,7.0,87,0.00,,,0.00,Wunderground v.1.15,2013-08-20 16:20:00,
2013-08-20 12:25:00,80.9,76.3,30.14,ESE,115,7.0,8.0,86,0.00,,,0.00,Wunderground v.1.15,2013-08-20 16:25:00,
2013-08-20 12:30:00,80.9,76.3,30.14,SE,138,7.0,12.0,86,0.00,,,0.00,Wunderground v.1.15,2013-08-20 16:30:00,
2013-08-20 12:35:00,80.9,76.3,30.14,SE,137,7.0,12.0,86,0.00,,,0.00,Wunderground v.1.15,2013-08-20 16:35:00,
2013-08-20 12:40:00,80.8,76.2,30.13,SE,134,7.0,12.0,86,0.00,,,0.00,Wunderground v.1.15,2013-08-20 16:40:00,
2013-08-20 12:45:00,80.6,76.0,30.13,SSE,150,7.0,12.0,86,0.00,,,0.00,Wunderground v.1.15,2013-08-20 16:45:00,
2013-08-20 12:50:00,80.4,76.2,30.13,SE,131,7.0,12.0,87,0.00,,,0.00,Wunderground v.1.15,2013-08-20 16:50:00,
2013-08-20 12:55:00,80.5,76.3,30.13,SE,136,7.0,12.0,87,0.00,,,0.00,Wunderground v.1.15,2013-08-20 16:55:00,
2013-08-20 13:00:00,80.8,76.2,30.14,SE,131,7.0,11.0,86,0.00,,,0.00,Wunderground v.1.15,2013-08-20 17:00:00,
2013-08-20 13:05:00,81.0,76.4,30.13,ESE,121,7.0,11.0,86,0.00,,,0.00,Wunderground v.1.15,2013-08-20 17:05:00,
2013-08-20 13:10:00,81.1,76.5,30.14,South,181,5.0,11.0,86,0.00,,,0.00,Wunderground v.1.15,2013-08-20 17:10:00,
2013-08-20 13:15:00,81.0,76.4,30.14,SSE,153,5.0,11.0,86,0.00,,,0.00,Wunderground v.1.15,2013-08-20 17:15:00,
2013-08-20 13:20:00,80.9,76.3,30.13,ESE,105,5.0,11.0,86,0.00,,,0.00,Wunderground v.1.15,2013-08-20 17:20:00,
2013-08-20 13:25:00,80.7,76.1,30.13,ESE,116,6.0,11.0,86,0.00,,,0.00,Wunderground v.1.15,2013-08-20 17:25:00,
2013-08-20 13:30:00,80.5,75.9,30.13,SE,125,6.0,11.0,86,0.00,,,0.00,Wunderground v.1.15,2013-08-20 17:30:00,
2013-08-20 13:35:00,80.6,76.0,30.14,SSE,147,7.0,11.0,86,0.00,,,0.00,Wunderground v.1.15,2013-08-20 17:35:00,
2013-08-20 13:40:00,80.8,76.2,30.13,SSE,165,7.0,7.0,86,0.00,,,0.00,Wunderground v.1.15,2013-08-20 17:40:00,
2013-08-20 13:45:00,81.2,76.3,30.13,SSE,153,7.0,11.0,85,0.00,,,0.00,Wunderground v.1.15,2013-08-20 17:45:00,
2013-08-20 13:50:00,81.2,76.3,30.14,ESE,112,7.0,11.0,85,0.00,,,0.00,Wunderground v.1.15,2013-08-20 17:50:00,
2013-08-20 13:55:00,81.0,76.1,30.14,ESE,115,7.0,11.0,85,0.00,,,0.00,Wunderground v.1.15,2013-08-20 17:55:00,
2013-08-20 14:05:00,81.3,76.4,30.12,SE,139,7.0,10.0,85,0.00,,,0.00,Wunderground v.1.15,2013-08-20 18:05:00,
2013-08-20 14:10:00,81.4,76.5,30.13,SE,139,8.0,8.0,85,0.00,,,0.00,Wunderground v.1.15,2013-08-20 18:10:00,
2013-08-20 14:15:00,81.5,76.6,30.13,SE,124,8.0,10.0,85,0.00,,,0.00,Wunderground v.1.15,2013-08-20 18:15:00,
2013-08-20 14:20:00,81.5,76.6,30.13,SE,134,8.0,10.0,85,0.00,,,0.00,Wunderground v.1.15,2013-08-20 18:20:00,
2013-08-20 14:25:00,81.5,76.6,30.13,SSE,150,9.0,10.0,85,0.00,,,0.00,Wunderground v.1.15,2013-08-20 18:25:00,
2013-08-20 14:30:00,81.3,76.4,30.13,SE,142,9.0,10.0,85,0.00,,,0.00,Wunderground v.1.15,2013-08-20 18:30:00,
2013-08-20 14:35:00,81.4,76.5,30.13,SE,142,8.0,10.0,85,0.00,,,0.00,Wunderground v.1.15,2013-08-20 18:35:00,
2013-08-20 14:40:00,81.4,76.1,30.13,SE,136,8.0,10.0,84,0.00,,,0.00,Wunderground v.1.15,2013-08-20 18:40:00,
2013-08-20 14:45:00,81.4,76.1,30.12,SE,129,9.0,11.0,84,0.00,,,0.00,Wunderground v.1.15,2013-08-20 18:45:00,
2013-08-20 14:50:00,81.7,76.7,30.13,ESE,108,9.0,9.0,85,0.00,,,0.00,Wunderground v.1.15,2013-08-20 18:50:00,
2013-08-20 14:55:00,81.6,76.3,30.12,ESE,105,8.0,10.0,84,0.00,,,0.00,Wunderground v.1.15,2013-08-20 18:55:00,
2013-08-20 15:00:00,81.2,76.3,30.11,SE,134,8.0,13.0,85,0.00,,,0.00,Wunderground v.1.15,2013-08-20 19:00:00,
2013-08-20 15:05:00,81.2,76.3,30.11,ESE,111,9.0,13.0,85,0.00,,,0.00,Wunderground v.1.15,2013-08-20 19:05:00,
2013-08-20 15:10:00,81.2,76.3,30.10,SE,125,9.0,9.0,85,0.00,,,0.00,Wunderground v.1.15,2013-08-20 19:10:00,
2013-08-20 15:15:00,81.3,76.4,30.11,SE,125,7.0,13.0,85,0.00,,,0.00,Wunderground v.1.15,2013-08-20 19:15:00,
2013-08-20 15:20:00,81.4,76.5,30.11,SSE,156,7.0,7.0,85,0.00,,,0.00,Wunderground v.1.15,2013-08-20 19:20:00,
2013-08-20 15:25:00,81.3,76.4,30.11,SE,141,7.0,8.0,85,0.00,,,0.00,Wunderground v.1.15,2013-08-20 19:25:00,
2013-08-20 15:30:00,81.3,76.4,30.11,SSE,160,7.0,7.0,85,0.00,,,0.00,Wunderground v.1.15,2013-08-20 19:30:00,
2013-08-20 15:35:00,80.9,76.0,30.11,SE,146,7.0,13.0,85,0.00,,,0.00,Wunderground v.1.15,2013-08-20 19:35:00,
2013-08-20 15:40:00,80.4,75.8,30.11,SE,132,7.0,7.0,86,0.00,,,0.00,Wunderground v.1.15,2013-08-20 19:40:00,
2013-08-20 15:45:00,80.1,75.5,30.11,SSE,160,7.0,8.0,86,0.00,,,0.00,Wunderground v.1.15,2013-08-20 19:45:00,
2013-08-20 15:50:00,80.0,75.8,30.11,SE,132,7.0,13.0,87,0.00,,,0.00,Wunderground v.1.15,2013-08-20 19:50:00,
2013-08-20 15:55:00,79.8,75.6,30.11,SE,127,7.0,13.0,87,0.00,,,0.00,Wunderground v.1.15,2013-08-20 19:55:00,
2013-08-20 16:00:00,79.7,75.5,30.11,SSE,155,7.0,7.0,87,0.00,,,0.00,Wunderground v.1.15,2013-08-20 20:00:00,
2013-08-20 16:05:00,79.8,75.6,30.11,SSE,160,5.0,13.0,87,0.00,,,0.00,Wunderground v.1.15,2013-08-20 20:05:00,
2013-08-20 16:10:00,79.8,75.2,30.11,East,79,4.0,13.0,86,0.00,,,0.00,Wunderground v.1.15,2013-08-20 20:10:00,
2013-08-20 16:15:00,79.8,75.2,30.11,ESE,105,5.0,13.0,86,0.00,,,0.00,Wunderground v.1.15,2013-08-20 20:15:00,
2013-08-20 16:20:00,79.8,75.2,30.10,ENE,76,5.0,13.0,86,0.00,,,0.00,Wunderground v.1.15,2013-08-20 20:20:00,
2013-08-20 16:25:00,79.7,75.1,30.10,SE,142,6.0,13.0,86,0.00,,,0.00,Wunderground v.1.15,2013-08-20 20:25:00,
2013-08-20 16:30:00,79.4,74.8,30.10,SE,125,8.0,13.0,86,0.00,,,0.00,Wunderground v.1.15,2013-08-20 20:30:00,
2013-08-20 16:35:00,79.4,74.8,30.10,SE,136,9.0,13.0,86,0.00,,,0.00,Wunderground v.1.15,2013-08-20 20:35:00,
2013-08-20 16:40:00,79.3,74.7,30.11,SE,132,8.0,13.0,86,0.00,,,0.00,Wunderground v.1.15,2013-08-20 20:40:00,
2013-08-20 16:45:00,79.3,74.7,30.11,SE,131,7.0,13.0,86,0.00,,,0.00,Wunderground v.1.15,2013-08-20 20:45:00,
2013-08-20 16:50:00,79.3,74.7,30.11,SE,142,7.0,7.0,86,0.00,,,0.00,Wunderground v.1.15,2013-08-20 20:50:00,
2013-08-20 16:55:00,79.3,75.1,30.12,SE,134,6.0,13.0,87,0.00,,,0.00,Wunderground v.1.15,2013-08-20 20:55:00,
2013-08-20 17:00:00,79.4,75.2,30.12,East,79,5.0,5.0,87,0.00,,,0.00,Wunderground v.1.15,2013-08-20 21:00:00,
2013-08-20 17:05:00,79.4,74.8,30.12,ESE,104,4.0,13.0,86,0.00,,,0.00,Wunderground v.1.15,2013-08-20 21:05:00,
2013-08-20 17:10:00,79.3,74.7,30.12,SE,130,4.0,13.0,86,0.00,,,0.00,Wunderground v.1.15,2013-08-20 21:10:00,
2013-08-20 17:15:00,79.3,75.1,30.11,SE,139,5.0,13.0,87,0.00,,,0.00,Wunderground v.1.15,2013-08-20 21:15:00,
2013-08-20 17:20:00,79.2,75.0,30.11,SE,143,6.0,6.0,87,0.00,,,0.00,Wunderground v.1.15,2013-08-20 21:20:00,
2013-08-20 17:25:00,79.2,75.0,30.11,SE,145,6.0,7.0,87,0.00,,,0.00,Wunderground v.1.15,2013-08-20 21:25:00,
2013-08-20 17:30:00,79.2,75.0,30.11,SE,127,6.0,13.0,87,0.00,,,0.00,Wunderground v.1.15,2013-08-20 21:30:00,
2013-08-20 17:35:00,79.2,75.0,30.12,SE,125,6.0,13.0,87,0.00,,,0.00,Wunderground v.1.15,2013-08-20 21:35:00,
2013-08-20 17:40:00,79.2,75.0,30.11,SE,136,6.0,6.0,87,0.00,,,0.00,Wunderground v.1.15,2013-08-20 21:40:00,
2013-08-20 17:45:00,79.3,75.1,30.12,SE,134,4.0,13.0,87,0.00,,,0.00,Wunderground v.1.15,2013-08-20 21:45:00,
2013-08-20 17:50:00,79.2,75.0,30.12,ESE,121,3.0,3.0,87,0.00,,,0.00,Wunderground v.1.15,2013-08-20 21:50:00,
2013-08-20 17:55:00,79.2,75.0,30.11,ENE,70,3.0,13.0,87,0.00,,,0.00,Wunderground v.1.15,2013-08-20 21:55:00,
2013-08-20 18:00:00,79.2,75.0,30.11,SE,129,3.0,10.0,87,0.00,,,0.00,Wunderground v.1.15,2013-08-20 22:00:00,
2013-08-20 18:05:00,79.2,75.0,30.11,East,90,3.0,10.0,87,0.00,,,0.00,Wunderground v.1.15,2013-08-20 22:05:00,
2013-08-20 18:10:00,79.2,75.0,30.11,ESE,116,3.0,10.0,87,0.00,,,0.00,Wunderground v.1.15,2013-08-20 22:10:00,
2013-08-20 18:15:00,79.2,75.0,30.11,ESE,120,3.0,10.0,87,0.00,,,0.00,Wunderground v.1.15,2013-08-20 22:15:00,
2013-08-20 18:20:00,79.1,74.9,30.11,SE,129,4.0,10.0,87,0.00,,,0.00,Wunderground v.1.15,2013-08-20 22:20:00,
2013-08-20 18:25:00,79.2,75.0,30.10,ENE,75,4.0,10.0,87,0.00,,,0.00,Wunderground v.1.15,2013-08-20 22:25:00,
2013-08-20 18:30:00,79.2,75.3,30.10,ESE,115,4.0,10.0,88,0.00,,,0.00,Wunderground v.1.15,2013-08-20 22:30:00,
2013-08-20 18:35:00,79.1,74.9,30.10,ENE,63,3.0,10.0,87,0.00,,,0.00,Wunderground v.1.15,2013-08-20 22:35:00,
2013-08-20 18:40:00,79.1,74.9,30.10,East,86,3.0,10.0,87,0.00,,,0.00,Wunderground v.1.15,2013-08-20 22:40:00,
2013-08-20 18:45:00,79.2,75.0,30.10,SSE,148,3.0,10.0,87,0.00,,,0.00,Wunderground v.1.15,2013-08-20 22:45:00,
2013-08-20 18:50:00,79.2,75.0,30.10,SE,145,3.0,10.0,87,0.00,,,0.00,Wunderground v.1.15,2013-08-20 22:50:00,
2013-08-20 18:55:00,79.1,74.9,30.10,SE,134,4.0,10.0,87,0.00,,,0.00,Wunderground v.1.15,2013-08-20 22:55:00,
2013-08-20 19:00:00,79.1,74.9,30.09,SE,129,5.0,8.0,87,0.00,,,0.00,Wunderground v.1.15,2013-08-20 23:00:00,
2013-08-20 19:10:00,79.0,75.1,30.09,ESE,111,5.0,5.0,88,0.00,,,0.00,Wunderground v.1.15,2013-08-20 23:10:00,
2013-08-20 19:15:00,79.0,75.1,30.10,ESE,105,4.0,6.0,88,0.00,,,0.00,Wunderground v.1.15,2013-08-20 23:15:00,
2013-08-20 19:20:00,79.0,75.1,30.10,SE,125,4.0,4.0,88,0.00,,,0.00,Wunderground v.1.15,2013-08-20 23:20:00,
2013-08-20 19:25:00,79.0,75.1,30.10,SE,129,4.0,8.0,88,0.00,,,0.00,Wunderground v.1.15,2013-08-20 23:25:00,
2013-08-20 19:30:00,79.0,75.1,30.10,SSE,153,4.0,8.0,88,0.00,,,0.00,Wunderground v.1.15,2013-08-20 23:30:00,
2013-08-20 19:35:00,79.0,75.1,30.11,SE,135,4.0,8.0,88,0.00,,,0.00,Wunderground v.1.15,2013-08-20 23:35:00,
2013-08-20 19:40:00,79.1,75.2,30.11,ESE,114,3.0,8.0,88,0.00,,,0.00,Wunderground v.1.15,2013-08-20 23:40:00,
2013-08-20 19:45:00,79.1,75.2,30.12,SE,132,2.0,8.0,88,0.00,,,0.00,Wunderground v.1.15,2013-08-20 23:45:00,
2013-08-20 19:50:00,79.0,75.1,30.12,SE,142,1.0,8.0,88,0.00,,,0.00,Wunderground v.1.15,2013-08-20 23:50:00,
2013-08-20 19:55:00,78.9,75.0,30.12,ESE,109,1.0,8.0,88,0.00,,,0.00,Wunderground v.1.15,2013-08-20 23:55:00,
2013-08-20 20:00:00,78.9,75.0,30.12,ESE,105,1.0,8.0,88,0.00,,,0.00,Wunderground v.1.15,2013-08-21 00:00:00,
2013-08-20 20:05:00,78.8,74.9,30.12,ESE,112,1.0,8.0,88,0.00,,,0.00,Wunderground v.1.15,2013-08-21 00:05:00,
2013-08-20 20:10:00,78.8,74.9,30.12,ESE,114,1.0,8.0,88,0.00,,,0.00,Wunderground v.1.15,2013-08-21 00:10:00,
2013-08-20 20:15:00,78.7,74.8,30.12,East,94,2.0,8.0,88,0.00,,,0.00,Wunderground v.1.15,2013-08-21 00:15:00,
2013-08-20 20:20:00,78.7,74.8,30.12,East,98,2.0,2.0,88,0.00,,,0.00,Wunderground v.1.15,2013-08-21 00:20:00,
2013-08-20 20:25:00,78.7,74.8,30.12,East,98,2.0,4.0,88,0.00,,,0.00,Wunderground v.1.15,2013-08-21 00:25:00,
2013-08-20 20:30:00,78.7,74.8,30.12,ENE,70,3.0,3.0,88,0.00,,,0.00,Wunderground v.1.15,2013-08-21 00:30:00,
2013-08-20 20:35:00,78.6,74.7,30.12,East,80,3.0,8.0,88,0.00,,,0.00,Wunderground v.1.15,2013-08-21 00:35:00,
2013-08-20 20:40:00,78.7,74.8,30.13,ESE,109,3.0,8.0,88,0.00,,,0.00,Wunderground v.1.15,2013-08-21 00:40:00,
2013-08-20 20:45:00,78.7,74.8,30.13,ENE,61,3.0,8.0,88,0.00,,,0.00,Wunderground v.1.15,2013-08-21 00:45:00,
2013-08-20 20:50:00,78.4,74.9,30.13,ENE,77,3.0,3.0,89,0.00,,,0.00,Wunderground v.1.15,2013-08-21 00:50:00,
2013-08-20 20:55:00,78.0,74.5,30.13,East,98,3.0,8.0,89,0.00,,,0.00,Wunderground v.1.15,2013-08-21 00:55:00,
2013-08-20 21:00:00,77.8,74.3,30.13,ENE,67,2.0,5.0,89,0.00,,,0.00,Wunderground v.1.15,2013-08-21 01:00:00,
2013-08-20 21:05:00,77.7,74.2,30.13,ESE,114,2.0,5.0,89,0.00,,,0.00,Wunderground v.1.15,2013-08-21 01:05:00,
2013-08-20 21:10:00,77.6,74.1,30.13,NE,56,3.0,3.0,89,0.00,,,0.00,Wunderground v.1.15,2013-08-21 01:10:00,
2013-08-20 21:15:00,77.5,74.0,30.13,East,100,2.0,5.0,89,0.00,,,0.00,Wunderground v.1.15,2013-08-21 01:15:00,
2013-08-20 21:20:00,77.5,74.0,30.13,ENE,69,2.0,5.0,89,0.00,,,0.00,Wunderground v.1.15,2013-08-21 01:20:00,
2013-08-20 21:25:00,77.7,74.2,30.12,East,84,3.0,5.0,89,0.00,,,0.00,Wunderground v.1.15,2013-08-21 01:25:00,
2013-08-20 21:30:00,77.8,74.3,30.13,East,84,4.0,5.0,89,0.00,,,0.00,Wunderground v.1.15,2013-08-21 01:30:00,
2013-08-20 21:35:00,78.0,74.5,30.13,SE,135,4.0,5.0,89,0.00,,,0.00,Wunderground v.1.15,2013-08-21 01:35:00,
2013-08-20 21:40:00,78.0,74.5,30.13,ESE,114,4.0,4.0,89,0.00,,,0.00,Wunderground v.1.15,2013-08-21 01:40:00,
2013-08-20 21:45:00,78.0,74.5,30.13,ESE,103,3.0,6.0,89,0.00,,,0.00,Wunderground v.1.15,2013-08-21 01:45:00,
2013-08-20 21:50:00,78.2,74.7,30.13,East,98,4.0,4.0,89,0.00,,,0.00,Wunderground v.1.15,2013-08-21 01:50:00,
2013-08-20 21:55:00,78.4,74.5,30.13,ENE,71,4.0,5.0,88,0.00,,,0.00,Wunderground v.1.15,2013-08-21 01:55:00,
2013-08-20 22:00:00,78.5,74.6,30.13,East,101,4.0,4.0,88,0.00,,,0.00,Wunderground v.1.15,2013-08-21 02:00:00,
2013-08-20 22:05:00,78.5,74.6,30.13,ESE,111,4.0,8.0,88,0.00,,,0.00,Wunderground v.1.15,2013-08-21 02:05:00,
2013-08-20 22:10:00,78.6,74.7,30.13,ENE,74,4.0,4.0,88,0.00,,,0.00,Wunderground v.1.15,2013-08-21 02:10:00,
2013-08-20 22:15:00,78.7,74.8,30.13,SE,140,5.0,7.0,88,0.00,,,0.00,Wunderground v.1.15,2013-08-21 02:15:00,
2013-08-20 22:20:00,78.8,74.9,30.13,ESE,109,7.0,8.0,88,0.00,,,0.00,Wunderground v.1.15,2013-08-21 02:20:00,
2013-08-20 22:25:00,78.9,75.0,30.13,SSE,153,7.0,8.0,88,0.00,,,0.00,Wunderground v.1.15,2013-08-21 02:25:00,
2013-08-20 22:30:00,79.0,75.1,30.13,ESE,114,7.0,7.0,88,0.00,,,0.00,Wunderground v.1.15,2013-08-21 02:30:00,
2013-08-20 22:35:00,78.9,75.0,30.13,SSE,154,6.0,8.0,88,0.00,,,0.00,Wunderground v.1.15,2013-08-21 02:35:00,
2013-08-20 22:40:00,79.0,75.1,30.13,SE,134,6.0,8.0,88,0.00,,,0.00,Wunderground v.1.15,2013-08-21 02:40:00,
2013-08-20 22:45:00,79.0,75.1,30.13,SE,131,6.0,8.0,88,0.00,,,0.00,Wunderground v.1.15,2013-08-21 02:45:00,
2013-08-20 22:50:00,79.0,75.1,30.14,SE,129,6.0,8.0,88,0.00,,,0.00,Wunderground v.1.15,2013-08-21 02:50:00,
2013-08-20 22:55:00,79.1,75.2,30.14,SSE,148,5.0,8.0,88,0.00,,,0.00,Wunderground v.1.15,2013-08-21 02:55:00,
2013-08-20 23:00:00,79.1,75.2,30.14,ESE,121,5.0,10.0,88,0.00,,,0.00,Wunderground v.1.15,2013-08-21 03:00:00,
2013-08-20 23:05:00,79.1,75.6,30.14,SE,129,5.0,10.0,89,0.00,,,0.00,Wunderground v.1.15,2013-08-21 03:05:00,
2013-08-20 23:10:00,79.1,75.6,30.14,East,100,5.0,5.0,89,0.00,,,0.00,Wunderground v.1.15,2013-08-21 03:10:00,
2013-08-20 23:15:00,79.0,75.5,30.14,SE,132,4.0,10.0,89,0.00,,,0.00,Wunderground v.1.15,2013-08-21 03:15:00,
2013-08-20 23:20:00,79.0,75.5,30.14,SSE,148,4.0,4.0,89,0.00,,,0.00,Wunderground v.1.15,2013-08-21 03:20:00,
2013-08-20 23:25:00,79.0,75.5,30.14,ESE,119,3.0,10.0,89,0.00,,,0.00,Wunderground v.1.15,2013-08-21 03:25:00,
2013-08-20 23:35:00,79.1,75.6,30.15,ESE,109,3.0,10.0,89,0.00,,,0.00,Wunderground v.1.15,2013-08-21 03:35:00,
2013-08-20 23:40:00,79.0,75.5,30.15,ESE,111,2.0,2.0,89,0.00,,,0.00,Wunderground v.1.15,2013-08-21 03:40:00,
2013-08-20 23:45:00,79.0,75.5,30.15,SE,145,2.0,10.0,89,0.00,,,0.00,Wunderground v.1.15,2013-08-21 03:45:00,
2013-08-20 23:50:00,79.0,75.5,30.15,ENE,78,2.0,10.0,89,0.00,,,0.00,Wunderground v.1.15,2013-08-21 03:50:00,
2013-08-20 23:55:00,79.0,75.5,30.15,East,96,1.0,10.0,89,0.00,,,0.00,Wunderground v.1.15,2013-08-21 03:55:00,